| time (UTC) | temp C | wind direction | speed KPH | gust KPH | rain 1hr cm | rain 24hr cm | rain mn cm | humidity % | barometer mb |
| 20260509091510 | 10 | 146 | 8.0 | 17.7 | 0.00 | 0.00 | 0.00 | 80 | 1002.4 |
| 20260509091003 | 10 | 181 | 6.4 | 16.1 | 0.00 | 0.00 | 0.00 | 80 | 1002.6 |
| 20260509090504 | 10 | 163 | 6.4 | 14.5 | 0.00 | 0.00 | 0.00 | 80 | 1002.6 |
| 20260509090014 | 10 | 150 | 6.4 | 16.1 | 0.00 | 0.00 | 0.00 | 80 | 1002.7 |
| 20260509085503 | 10 | 158 | 4.8 | 16.1 | 0.00 | 0.00 | 0.00 | 80 | 1002.8 |
| 20260509085003 | 10 | 183 | 6.4 | 12.9 | 0.00 | 0.00 | 0.00 | 80 | 1002.9 |
| 20260509084003 | 11 | 155 | 4.8 | 16.1 | 0.00 | 0.00 | 0.00 | 78 | 1002.8 |
| 20260509083006 | 11 | 184 | 6.4 | 19.3 | 0.00 | 0.00 | 0.00 | 78 | 1003.0 |
| 20260509082503 | 11 | 159 | 9.7 | 19.3 | 0.00 | 0.00 | 0.00 | 78 | 1003.2 |
| 20260509082004 | 11 | 167 | 6.4 | 17.7 | 0.00 | 0.00 | 0.00 | 78 | 1003.3 |
| 20260509081508 | 11 | 196 | 6.4 | 16.1 | 0.00 | 0.00 | 0.00 | 77 | 1003.4 |
| 20260509081004 | 11 | 188 | 4.8 | 16.1 | 0.00 | 0.00 | 0.00 | 77 | 1003.4 |
| 20260509080504 | 10 | 158 | 3.2 | 12.9 | 0.00 | 0.00 | 0.00 | 77 | 1003.3 |
| 20260509080014 | 10 | 160 | 3.2 | 17.7 | 0.00 | 0.00 | 0.00 | 76 | 1003.4 |
| 20260509075503 | 10 | 182 | 6.4 | 17.7 | 0.00 | 0.00 | 0.00 | 76 | 1003.4 |
| 20260509075003 | 10 | 159 | 3.2 | 14.5 | 0.00 | 0.00 | 0.00 | 75 | 1003.5 |
| 20260509074516 | 10 | 199 | 6.4 | 16.1 | 0.00 | 0.00 | 0.00 | 74 | 1003.5 |
| 20260509074009 | 10 | 178 | 6.4 | 16.1 | 0.00 | 0.00 | 0.00 | 73 | 1003.6 |
| 20260509073503 | 10 | 174 | 4.8 | 14.5 | 0.00 | 0.00 | 0.00 | 71 | 1003.6 |
| 20260509073014 | 10 | 182 | 4.8 | 16.1 | 0.00 | 0.00 | 0.00 | 70 | 1003.6 |
| 20260509072011 | 10 | 197 | 6.4 | 14.5 | 0.00 | 0.00 | 0.00 | 67 | 1003.8 |
| 20260509071504 | 9 | 181 | 4.8 | 12.9 | 0.00 | 0.00 | 0.00 | 66 | 1003.9 |
| 20260509071003 | 9 | 189 | 6.4 | 12.9 | 0.00 | 0.00 | 0.00 | 63 | 1004.0 |
| 20260509070504 | 9 | 150 | 3.2 | 12.9 | 0.00 | 0.00 | 0.00 | 62 | 1004.0 |
| 20260509070008 | 9 | 157 | 4.8 | 12.9 | 0.00 | 0.00 | 0.00 | 59 | 1004.0 |
| 20260509065508 | 10 | 165 | 4.8 | 12.9 | 0.00 | 0.00 | 0.00 | 57 | 1004.0 |
| 20260509065007 | 10 | 189 | 3.2 | 9.7 | 0.00 | 0.00 | 0.00 | 56 | 1004.0 |
| 20260509064528 | 10 | 157 | 3.2 | 14.5 | 0.00 | 0.00 | 0.00 | 55 | 1004.0 |
| 20260509064004 | 10 | 198 | 4.8 | 14.5 | 0.00 | 0.00 | 0.00 | 54 | 1004.2 |
| 20260509063505 | 10 | 165 | 4.8 | 14.5 | 0.00 | 0.00 | 0.00 | 53 | 1004.3 |
| 20260509063017 | 10 | 150 | 6.4 | 14.5 | 0.00 | 0.00 | 0.00 | 50 | 1004.3 |
| 20260509062504 | 10 | 157 | 4.8 | 14.5 | 0.00 | 0.00 | 0.00 | 48 | 1004.4 |
| 20260509062003 | 10 | 130 | 4.8 | 14.5 | 0.00 | 0.00 | 0.00 | 47 | 1004.4 |
| 20260509061535 | 10 | 169 | 6.4 | 14.5 | 0.00 | 0.00 | 0.00 | 46 | 1004.5 |
| 20260509061009 | 10 | 158 | 6.4 | 16.1 | 0.00 | 0.00 | 0.00 | 44 | 1004.4 |
| 20260509060504 | 10 | 181 | 4.8 | 16.1 | 0.00 | 0.00 | 0.00 | 43 | 1004.4 |
| 20260509060006 | 10 | 158 | 8.0 | 14.5 | 0.00 | 0.00 | 0.00 | 41 | 1004.5 |
| 20260509055504 | 10 | 131 | 6.4 | 14.5 | 0.00 | 0.00 | 0.00 | 41 | 1004.6 |
| 20260509054510 | 10 | 142 | 3.2 | 11.3 | 0.00 | 0.00 | 0.00 | 42 | 1004.7 |
| 20260509054005 | 10 | 127 | 4.8 | 11.3 | 0.00 | 0.00 | 0.00 | 41 | 1004.8 |
| 20260509053507 | 10 | 142 | 3.2 | 11.3 | 0.00 | 0.00 | 0.00 | 42 | 1004.8 |
| 20260509052007 | 10 | 154 | 3.2 | 11.3 | 0.00 | 0.00 | 0.00 | 40 | 1004.7 |
| 20260509051521 | 10 | 162 | 4.8 | 11.3 | 0.00 | 0.00 | 0.00 | 40 | 1004.7 |
| 20260509051006 | 10 | 148 | 4.8 | 12.9 | 0.00 | 0.00 | 0.00 | 39 | 1004.7 |
| 20260509050505 | 10 | 140 | 4.8 | 16.1 | 0.00 | 0.00 | 0.00 | 39 | 1004.8 |
| 20260509050025 | 10 | 188 | 4.8 | 16.1 | 0.00 | 0.00 | 0.00 | 38 | 1004.8 |
| 20260509045504 | 10 | 122 | 4.8 | 11.3 | 0.00 | 0.00 | 0.00 | 40 | 1004.9 |
| 20260509045004 | 10 | 149 | 4.8 | 11.3 | 0.00 | 0.00 | 0.00 | 39 | 1004.9 |
| 20260509044511 | 10 | 155 | 3.2 | 6.4 | 0.00 | 0.00 | 0.00 | 40 | 1005.0 |
| 20260509044003 | 9 | 140 | 3.2 | 8.0 | 0.00 | 0.00 | 0.00 | 42 | 1004.9 |
| 20260509043508 | 8 | 142 | 3.2 | 8.0 | 0.00 | 0.00 | 0.00 | 43 | 1004.9 |
| 20260509043014 | 8 | 135 | 1.6 | 8.0 | 0.00 | 0.00 | 0.00 | 44 | 1004.9 |
| 20260509042505 | 8 | 132 | 1.6 | 6.4 | 0.00 | 0.00 | 0.00 | 45 | 1005.0 |
| 20260509042004 | 8 | 128 | 0.0 | 3.2 | 0.00 | 0.00 | 0.00 | 44 | 1005.0 |
| 20260509041516 | 8 | 138 | 0.0 | 4.8 | 0.00 | 0.00 | 0.00 | 43 | 1005.1 |
| 20260509041007 | 8 | 119 | 0.0 | 4.8 | 0.00 | 0.00 | 0.00 | 44 | 1005.1 |
| 20260509040506 | 8 | 133 | 0.0 | 3.2 | 0.00 | 0.00 | 0.00 | 44 | 1005.1 |
| 20260509040014 | 8 | 130 | 0.0 | 1.6 | 0.00 | 0.00 | 0.00 | 43 | 1005.1 |
| 20260509035508 | 8 | 141 | 0.0 | 1.6 | 0.00 | 0.00 | 0.00 | 44 | 1005.2 |
| 20260509035006 | 8 | 143 | 0.0 | 1.6 | 0.00 | 0.00 | 0.00 | 45 | 1005.3 |
| 20260509034533 | 8 | 142 | 0.0 | 0.0 | 0.00 | 0.00 | 0.00 | 45 | 1005.4 |
| 20260509034005 | 8 | 142 | 0.0 | 1.6 | 0.00 | 0.00 | 0.00 | 45 | 1005.5 |
| 20260509033504 | 9 | 142 | 0.0 | 3.2 | 0.00 | 0.00 | 0.00 | 42 | 1005.5 |
| 20260509033011 | 10 | 142 | 0.0 | 3.2 | 0.00 | 0.00 | 0.00 | 41 | 1005.5 |
| 20260509032503 | 10 | 137 | 0.0 | 6.4 | 0.00 | 0.00 | 0.00 | 40 | 1005.5 |
| 20260509032011 | 10 | 150 | 0.0 | 8.0 | 0.00 | 0.00 | 0.00 | 39 | 1005.6 |
| 20260509031518 | 10 | 153 | 1.6 | 8.0 | 0.00 | 0.00 | 0.00 | 38 | 1005.6 |
| 20260509031006 | 10 | 151 | 1.6 | 8.0 | 0.00 | 0.00 | 0.00 | 36 | 1005.7 |
| 20260509030023 | 10 | 153 | 3.2 | 9.7 | 0.00 | 0.00 | 0.00 | 36 | 1005.8 |
| 20260509025507 | 10 | 160 | 1.6 | 8.0 | 0.00 | 0.00 | 0.00 | 36 | 1005.9 |
| 20260509025002 | 10 | 130 | 3.2 | 8.0 | 0.00 | 0.00 | 0.00 | 35 | 1006.0 |
| 20260509023509 | 10 | 136 | 1.6 | 8.0 | 0.00 | 0.00 | 0.00 | 38 | 1006.2 |
| 20260509023015 | 10 | 173 | 3.2 | 8.0 | 0.00 | 0.00 | 0.00 | 39 | 1006.2 |
| 20260509022510 | 10 | 167 | 1.6 | 6.4 | 0.00 | 0.00 | 0.00 | 40 | 1006.2 |
| 20260509022003 | 10 | 170 | 3.2 | 6.4 | 0.00 | 0.00 | 0.00 | 39 | 1006.2 |
| 20260509021516 | 10 | 173 | 1.6 | 6.4 | 0.00 | 0.00 | 0.00 | 40 | 1006.2 |
| 20260509021007 | 10 | 159 | 0.0 | 8.0 | 0.00 | 0.00 | 0.00 | 40 | 1006.1 |
| 20260509020501 | 10 | 167 | 3.2 | 8.0 | 0.00 | 0.00 | 0.00 | 43 | 1006.1 |
| 20260509015504 | 10 | 158 | 1.6 | 8.0 | 0.00 | 0.00 | 0.00 | 45 | 1006.0 |
| 20260509015004 | 10 | 153 | 1.6 | 4.8 | 0.00 | 0.00 | 0.00 | 46 | 1006.0 |
| 20260509014506 | 10 | 153 | 0.0 | 0.0 | 0.00 | 0.00 | 0.00 | 46 | 1006.0 |
| 20260509014002 | 10 | 153 | 0.0 | 0.0 | 0.00 | 0.00 | 0.00 | 44 | 1006.0 |
| 20260509013502 | 10 | 153 | 0.0 | 0.0 | 0.00 | 0.00 | 0.00 | 44 | 1006.0 |
| 20260509013011 | 10 | 153 | 0.0 | 0.0 | 0.00 | 0.00 | 0.00 | 43 | 1006.0 |
| 20260509012503 | 11 | 153 | 0.0 | 0.0 | 0.00 | 0.00 | 0.00 | 41 | 1006.0 |
| 20260509011508 | 11 | 153 | 0.0 | 3.2 | 0.00 | 0.00 | 0.00 | 39 | 1006.1 |
| 20260509010503 | 12 | 155 | 0.0 | 3.2 | 0.00 | 0.00 | 0.00 | 37 | 1006.0 |
| 20260509005508 | 12 | 155 | 1.6 | 6.4 | 0.00 | 0.00 | 0.00 | 32 | 1006.0 |
| 20260509005004 | 13 | 160 | 1.6 | 6.4 | 0.00 | 0.00 | 0.00 | 31 | 1006.0 |
| 20260509004525 | 13 | 152 | 1.6 | 4.8 | 0.00 | 0.00 | 0.00 | 31 | 1006.1 |
| 20260509004005 | 13 | 153 | 1.6 | 3.2 | 0.00 | 0.00 | 0.00 | 30 | 1006.1 |
| 20260509003503 | 13 | 161 | 1.6 | 3.2 | 0.00 | 0.00 | 0.00 | 30 | 1006.1 |
| 20260509003008 | 13 | 175 | 0.0 | 8.0 | 0.00 | 0.00 | 0.00 | 30 | 1006.1 |
| 20260509002503 | 13 | 197 | 3.2 | 11.3 | 0.00 | 0.00 | 0.00 | 30 | 1006.1 |
| 20260509002005 | 14 | 186 | 1.6 | 11.3 | 0.00 | 0.00 | 0.00 | 30 | 1006.2 |
| 20260509001506 | 14 | 169 | 4.8 | 11.3 | 0.00 | 0.00 | 0.00 | 31 | 1006.3 |
| 20260509001004 | 15 | 166 | 6.4 | 9.7 | 0.00 | 0.00 | 0.00 | 31 | 1006.3 |
| 20260508235504 | 15 | 201 | 3.2 | 9.7 | 0.00 | 0.00 | 0.00 | 28 | 1006.4 |
| 20260508235005 | 15 | 208 | 3.2 | 9.7 | 0.00 | 0.00 | 0.00 | 31 | 1006.5 |
| 20260508234004 | 15 | 174 | 4.8 | 12.9 | 0.00 | 0.00 | 0.00 | 28 | 1006.6 |
| 20260508233504 | 15 | 191 | 4.8 | 14.5 | 0.00 | 0.00 | 0.00 | 27 | 1006.5 |
| 20260508233010 | 15 | 203 | 6.4 | 17.7 | 0.00 | 0.00 | 0.00 | 30 | 1006.6 |
| 20260508232502 | 16 | 198 | 8.0 | 19.3 | 0.00 | 0.00 | 0.00 | 32 | 1006.7 |
| 20260508232009 | 16 | 180 | 8.0 | 19.3 | 0.00 | 0.00 | 0.00 | 28 | 1006.8 |
| 20260508231514 | 16 | 225 | 6.4 | 17.7 | 0.00 | 0.00 | 0.00 | 28 | 1006.7 |
| 20260508231004 | 16 | 224 | 6.4 | 17.7 | 0.00 | 0.00 | 0.00 | 28 | 1006.7 |
| 20260508230503 | 16 | 229 | 6.4 | 14.5 | 0.00 | 0.00 | 0.00 | 29 | 1006.7 |
| 20260508230011 | 16 | 244 | 8.0 | 16.1 | 0.00 | 0.00 | 0.00 | 29 | 1006.7 |
| 20260508224507 | 16 | 238 | 3.2 | 11.3 | 0.00 | 0.00 | 0.00 | 30 | 1006.7 |
| 20260508223503 | 16 | 188 | 3.2 | 9.7 | 0.00 | 0.00 | 0.00 | 29 | 1006.8 |
| 20260508223032 | 16 | 219 | 4.8 | 19.3 | 0.00 | 0.00 | 0.00 | 32 | 1006.9 |
| 20260508222504 | 16 | 229 | 8.0 | 19.3 | 0.00 | 0.00 | 0.00 | 27 | 1006.9 |
| 20260508222006 | 16 | 219 | 6.4 | 16.1 | 0.00 | 0.00 | 0.00 | 28 | 1006.9 |
| 20260508221514 | 16 | 236 | 1.6 | 17.7 | 0.00 | 0.00 | 0.00 | 28 | 1007.0 |
| 20260508221003 | 16 | 228 | 8.0 | 19.3 | 0.00 | 0.00 | 0.00 | 27 | 1007.0 |
| 20260508220503 | 16 | 287 | 11.3 | 19.3 | 0.00 | 0.00 | 0.00 | 26 | 1007.0 |
| 20260508220012 | 16 | 254 | 11.3 | 16.1 | 0.00 | 0.00 | 0.00 | 27 | 1007.0 |
| 20260508215503 | 16 | 194 | 6.4 | 16.1 | 0.00 | 0.00 | 0.00 | 29 | 1007.0 |
| 20260508215007 | 16 | 239 | 6.4 | 16.1 | 0.00 | 0.00 | 0.00 | 31 | 1007.0 |
| 20260508214513 | 16 | 177 | 1.6 | 20.9 | 0.00 | 0.00 | 0.00 | 28 | 1006.9 |
| 20260508213503 | 16 | 266 | 9.7 | 16.1 | 0.00 | 0.00 | 0.00 | 29 | 1007.0 |
| 20260508213012 | 16 | 307 | 6.4 | 17.7 | 0.00 | 0.00 | 0.00 | 30 | 1007.0 |
| 20260508212504 | 16 | 296 | 9.7 | 17.7 | 0.00 | 0.00 | 0.00 | 28 | 1007.1 |
| 20260508212004 | 16 | 227 | 9.7 | 19.3 | 0.00 | 0.00 | 0.00 | 29 | 1007.1 |
| 20260508211512 | 16 | 246 | 8.0 | 19.3 | 0.00 | 0.00 | 0.00 | 29 | 1007.1 |
| 20260508211005 | 16 | 254 | 6.4 | 17.7 | 0.00 | 0.00 | 0.00 | 29 | 1007.2 |
| 20260508210504 | 16 | 263 | 8.0 | 19.3 | 0.00 | 0.00 | 0.00 | 27 | 1007.2 |
| 20260508210015 | 16 | 259 | 12.9 | 19.3 | 0.00 | 0.00 | 0.00 | 27 | 1007.2 |
| 20260508205504 | 16 | 261 | 8.0 | 17.7 | 0.00 | 0.00 | 0.00 | 31 | 1007.2 |
| 20260508205003 | 16 | 218 | 8.0 | 17.7 | 0.00 | 0.00 | 0.00 | 31 | 1007.2 |
| 20260508204514 | 16 | 292 | 9.7 | 20.9 | 0.00 | 0.00 | 0.00 | 27 | 1007.3 |
| 20260508204008 | 16 | 299 | 12.9 | 20.9 | 0.00 | 0.00 | 0.00 | 28 | 1007.3 |
| 20260508203505 | 16 | 204 | 9.7 | 19.3 | 0.00 | 0.00 | 0.00 | 31 | 1007.3 |
| 20260508203017 | 16 | 9 | 6.4 | 19.3 | 0.00 | 0.00 | 0.00 | 31 | 1007.4 |
| 20260508202505 | 16 | 323 | 9.7 | 19.3 | 0.00 | 0.00 | 0.00 | 27 | 1007.5 |
| 20260508202005 | 16 | 223 | 3.2 | 20.9 | 0.00 | 0.00 | 0.00 | 27 | 1007.4 |
| 20260508201517 | 16 | 343 | 12.9 | 20.9 | 0.00 | 0.00 | 0.00 | 29 | 1007.5 |
| 20260508201011 | 16 | 268 | 6.4 | 14.5 | 0.00 | 0.00 | 0.00 | 28 | 1007.5 |
| 20260508200504 | 16 | 205 | 1.6 | 19.3 | 0.00 | 0.00 | 0.00 | 26 | 1007.7 |
| 20260508200017 | 16 | 235 | 11.3 | 19.3 | 0.00 | 0.00 | 0.00 | 28 | 1007.8 |
| 20260508195508 | 16 | 213 | 4.8 | 17.7 | 0.00 | 0.00 | 0.00 | 27 | 1007.8 |
| 20260508195005 | 16 | 192 | 3.2 | 20.9 | 0.00 | 0.00 | 0.00 | 34 | 1007.8 |
| 20260508194516 | 16 | 315 | 9.7 | 22.5 | 0.00 | 0.00 | 0.00 | 28 | 1007.9 |
| 20260508194002 | 16 | 267 | 11.3 | 22.5 | 0.00 | 0.00 | 0.00 | 30 | 1008.0 |
| 20260508193505 | 16 | 234 | 9.7 | 20.9 | 0.00 | 0.00 | 0.00 | 30 | 1007.9 |
| 20260508193010 | 16 | 282 | 9.7 | 19.3 | 0.00 | 0.00 | 0.00 | 28 | 1008.1 |
| 20260508192505 | 16 | 213 | 9.7 | 22.5 | 0.00 | 0.00 | 0.00 | 32 | 1008.0 |
| 20260508192006 | 16 | 230 | 14.5 | 22.5 | 0.00 | 0.00 | 0.00 | 29 | 1008.1 |
| 20260508191530 | 16 | 257 | 11.3 | 20.9 | 0.00 | 0.00 | 0.00 | 30 | 1008.0 |
| 20260508191005 | 16 | 240 | 8.0 | 22.5 | 0.00 | 0.00 | 0.00 | 28 | 1008.1 |
| 20260508190505 | 16 | 215 | 8.0 | 22.5 | 0.00 | 0.00 | 0.00 | 29 | 1008.2 |
| 20260508190026 | 16 | 273 | 8.0 | 19.3 | 0.00 | 0.00 | 0.00 | 29 | 1008.1 |
| 20260508185504 | 15 | 297 | 11.3 | 19.3 | 0.00 | 0.00 | 0.00 | 28 | 1008.2 |
| 20260508185004 | 15 | 226 | 4.8 | 19.3 | 0.00 | 0.00 | 0.00 | 33 | 1008.2 |
| 20260508184524 | 15 | 286 | 9.7 | 19.3 | 0.00 | 0.00 | 0.00 | 30 | 1008.3 |
| 20260508184007 | 16 | 261 | 9.7 | 24.1 | 0.00 | 0.00 | 0.00 | 31 | 1008.3 |
| 20260508183506 | 16 | 257 | 8.0 | 24.1 | 0.00 | 0.00 | 0.00 | 31 | 1008.4 |
| 20260508183013 | 16 | 329 | 6.4 | 16.1 | 0.00 | 0.00 | 0.00 | 31 | 1008.3 |
| 20260508182508 | 15 | 320 | 6.4 | 19.3 | 0.00 | 0.00 | 0.00 | 31 | 1008.4 |
| 20260508182006 | 15 | 270 | 9.7 | 19.3 | 0.00 | 0.00 | 0.00 | 29 | 1008.6 |
| 20260508181517 | 15 | 244 | 9.7 | 16.1 | 0.00 | 0.00 | 0.00 | 29 | 1008.6 |
| 20260508181007 | 15 | 216 | 4.8 | 20.9 | 0.00 | 0.00 | 0.00 | 32 | 1008.6 |
| 20260508180507 | 15 | 259 | 6.4 | 20.9 | 0.00 | 0.00 | 0.00 | 29 | 1008.7 |
| 20260508180015 | 15 | 225 | 11.3 | 16.1 | 0.00 | 0.00 | 0.00 | 30 | 1008.7 |
| 20260508175506 | 15 | 249 | 4.8 | 19.3 | 0.00 | 0.00 | 0.00 | 31 | 1008.7 |
| 20260508175006 | 15 | 215 | 6.4 | 19.3 | 0.00 | 0.00 | 0.00 | 32 | 1008.9 |
| 20260508174519 | 16 | 262 | 11.3 | 19.3 | 0.00 | 0.00 | 0.00 | 35 | 1008.9 |
| 20260508174008 | 15 | 202 | 11.3 | 19.3 | 0.00 | 0.00 | 0.00 | 31 | 1009.0 |
| 20260508173505 | 15 | 207 | 9.7 | 19.3 | 0.00 | 0.00 | 0.00 | 33 | 1009.1 |
| 20260508173018 | 15 | 59 | 4.8 | 16.1 | 0.00 | 0.00 | 0.00 | 35 | 1009.1 |
| 20260508172506 | 15 | 240 | 4.8 | 20.9 | 0.00 | 0.00 | 0.00 | 35 | 1009.3 |
| 20260508172008 | 15 | 322 | 3.2 | 20.9 | 0.00 | 0.00 | 0.00 | 31 | 1009.2 |
| 20260508171518 | 15 | 271 | 6.4 | 12.9 | 0.00 | 0.00 | 0.00 | 34 | 1009.4 |
| 20260508171007 | 15 | 5 | 4.8 | 14.5 | 0.00 | 0.00 | 0.00 | 36 | 1009.6 |
| 20260508170502 | 15 | 324 | 4.8 | 19.3 | 0.00 | 0.00 | 0.00 | 36 | 1009.7 |
| 20260508170003 | 15 | 230 | 9.7 | 22.5 | 0.00 | 0.00 | 0.00 | 33 | 1009.8 |
| 20260508165504 | 15 | 187 | 8.0 | 22.5 | 0.00 | 0.00 | 0.00 | 39 | 1009.9 |
| 20260508165004 | 15 | 286 | 8.0 | 20.9 | 0.00 | 0.00 | 0.00 | 36 | 1009.9 |
| 20260508164504 | 14 | 279 | 12.9 | 20.9 | 0.00 | 0.00 | 0.00 | 34 | 1010.0 |
| 20260508164003 | 15 | 245 | 11.3 | 20.9 | 0.00 | 0.00 | 0.00 | 35 | 1010.1 |
| 20260508163502 | 14 | 252 | 8.0 | 19.3 | 0.00 | 0.00 | 0.00 | 37 | 1010.2 |
| 20260508163010 | 14 | 222 | 9.7 | 19.3 | 0.00 | 0.00 | 0.00 | 35 | 1010.2 |
| 20260508161515 | 14 | 290 | 4.8 | 17.7 | 0.00 | 0.00 | 0.00 | 35 | 1010.1 |
| 20260508161006 | 14 | 221 | 6.4 | 19.3 | 0.00 | 0.00 | 0.00 | 39 | 1010.2 |
| 20260508160502 | 13 | 247 | 8.0 | 19.3 | 0.00 | 0.00 | 0.00 | 37 | 1010.4 |
| 20260508160016 | 13 | 196 | 3.2 | 17.7 | 0.00 | 0.00 | 0.00 | 37 | 1010.2 |
| 20260508155503 | 13 | 210 | 6.4 | 17.7 | 0.00 | 0.00 | 0.00 | 37 | 1010.3 |
| 20260508155004 | 13 | 246 | 4.8 | 19.3 | 0.00 | 0.00 | 0.00 | 39 | 1010.3 |
| 20260508154505 | 13 | 214 | 6.4 | 19.3 | 0.00 | 0.00 | 0.00 | 40 | 1010.3 |
| 20260508154002 | 13 | 213 | 9.7 | 19.3 | 0.00 | 0.00 | 0.00 | 38 | 1010.3 |
| 20260508153503 | 14 | 283 | 0.0 | 17.7 | 0.00 | 0.00 | 0.00 | 40 | 1010.3 |
| 20260508153008 | 14 | 162 | 6.4 | 17.7 | 0.00 | 0.00 | 0.00 | 45 | 1010.4 |
| 20260508152507 | 13 | 220 | 9.7 | 16.1 | 0.00 | 0.00 | 0.00 | 45 | 1010.6 |
| 20260508152005 | 13 | 205 | 6.4 | 14.5 | 0.00 | 0.00 | 0.00 | 39 | 1010.6 |
| 20260508150508 | 13 | 195 | 4.8 | 17.7 | 0.00 | 0.00 | 0.00 | 42 | 1010.7 |
| 20260508150021 | 13 | 217 | 8.0 | 17.7 | 0.00 | 0.00 | 0.00 | 41 | 1010.8 |
| 20260508145503 | 13 | 190 | 8.0 | 17.7 | 0.00 | 0.00 | 0.00 | 46 | 1010.8 |
| 20260508144518 | 13 | 241 | 8.0 | 16.1 | 0.00 | 0.00 | 0.00 | 38 | 1010.8 |
| 20260508144002 | 13 | 234 | 8.0 | 14.5 | 0.00 | 0.00 | 0.00 | 47 | 1010.8 |
| 20260508143502 | 12 | 207 | 4.8 | 14.5 | 0.00 | 0.00 | 0.00 | 38 | 1010.8 |
| 20260508143010 | 12 | 214 | 6.4 | 12.9 | 0.00 | 0.00 | 0.00 | 40 | 1010.8 |
| 20260508142502 | 12 | 211 | 3.2 | 17.7 | 0.00 | 0.00 | 0.00 | 47 | 1010.9 |
| 20260508142004 | 12 | 219 | 1.6 | 17.7 | 0.00 | 0.00 | 0.00 | 52 | 1010.9 |
| 20260508141511 | 12 | 217 | 4.8 | 12.9 | 0.00 | 0.00 | 0.00 | 53 | 1010.9 |
| 20260508141004 | 12 | 263 | 6.4 | 12.9 | 0.00 | 0.00 | 0.00 | 55 | 1011.0 |
| 20260508140505 | 12 | 217 | 4.8 | 11.3 | 0.00 | 0.00 | 0.00 | 55 | 1011.0 |
| 20260508140008 | 12 | 194 | 1.6 | 9.7 | 0.00 | 0.00 | 0.00 | 50 | 1011.0 |
| 20260508135007 | 11 | 175 | 4.8 | 9.7 | 0.00 | 0.00 | 0.00 | 59 | 1011.0 |
| 20260508134511 | 11 | 180 | 6.4 | 9.7 | 0.00 | 0.00 | 0.00 | 59 | 1011.0 |
| 20260508134007 | 11 | 178 | 1.6 | 9.7 | 0.00 | 0.00 | 0.00 | 62 | 1011.0 |
| 20260508133005 | 10 | 163 | 1.6 | 6.4 | 0.00 | 0.00 | 0.00 | 63 | 1011.0 |
| 20260508132503 | 10 | 208 | 0.0 | 4.8 | 0.00 | 0.00 | 0.00 | 1011.1 | |
| 20260508132005 | 10 | 204 | 3.2 | 6.4 | 0.00 | 0.00 | 0.00 | 63 | 1011.1 |
| 20260508131512 | 10 | 246 | 1.6 | 8.0 | 0.00 | 0.00 | 0.00 | 63 | 1011.2 |
| 20260508131004 | 9 | 220 | 3.2 | 8.0 | 0.00 | 0.00 | 0.00 | 64 | 1011.2 |
| 20260508130507 | 8 | 234 | 3.2 | 8.0 | 0.00 | 0.00 | 0.00 | 68 | 1011.2 |
| 20260508130020 | 8 | 214 | 4.8 | 8.0 | 0.00 | 0.00 | 0.00 | 67 | 1011.3 |
| 20260508125505 | 8 | 212 | 4.8 | 8.0 | 0.00 | 0.00 | 0.00 | 67 | 1011.3 |
| 20260508125004 | 8 | 225 | 3.2 | 8.0 | 0.00 | 0.00 | 0.00 | 68 | 1011.4 |
| 20260508124514 | 7 | 215 | 1.6 | 4.8 | 0.00 | 0.00 | 0.00 | 67 | 1011.4 |
| 20260508124007 | 7 | 209 | 1.6 | 4.8 | 0.00 | 0.00 | 0.00 | 69 | 1011.3 |
| 20260508123509 | 7 | 228 | 0.0 | 4.8 | 0.00 | 0.00 | 0.00 | 70 | 1011.2 |
| 20260508123012 | 7 | 215 | 1.6 | 4.8 | 0.00 | 0.00 | 0.00 | 68 | 1011.3 |
| 20260508122003 | 6 | 170 | 1.6 | 6.4 | 0.00 | 0.00 | 0.00 | 72 | 1011.1 |
| 20260508121511 | 6 | 171 | 0.0 | 6.4 | 0.00 | 0.00 | 0.00 | 73 | 1011.2 |
| 20260508121002 | 6 | 178 | 3.2 | 6.4 | 0.00 | 0.00 | 0.00 | 74 | 1011.1 |
| 20260508120503 | 5 | 136 | 0.0 | 1.6 | 0.00 | 0.00 | 0.00 | 75 | 1011.1 |
| 20260508115504 | 5 | 162 | 0.0 | 3.2 | 0.00 | 0.00 | 0.00 | 80 | 1011.0 |
| 20260508115004 | 4 | 78 | 0.0 | 1.6 | 0.00 | 0.00 | 0.00 | 84 | 1011.0 |
| 20260508114004 | 2 | 73 | 0.0 | 0.0 | 0.00 | 0.00 | 0.00 | 87 | 1010.7 |
| 20260508113017 | 1 | 73 | 0.0 | 0.0 | 0.00 | 0.00 | 0.00 | 88 | 1010.7 |
| 20260508112513 | 1 | 73 | 0.0 | 0.0 | 0.00 | 0.00 | 0.00 | 89 | 1010.8 |
| 20260508112006 | 1 | 73 | 0.0 | 0.0 | 0.00 | 0.00 | 0.00 | 89 | 1010.7 |
| 20260508111527 | 1 | 73 | 0.0 | 0.0 | 0.00 | 0.00 | 0.00 | 89 | 1010.7 |
| 20260508111009 | 0 | 73 | 0.0 | 0.0 | 0.00 | 0.00 | 0.00 | 89 | 1010.7 |
| 20260508110503 | 0 | 73 | 0.0 | 0.0 | 0.00 | 0.00 | 0.00 | 89 | 1010.7 |
| 20260508110010 | 0 | 73 | 0.0 | 0.0 | 0.00 | 0.00 | 0.00 | 88 | 1010.7 |
| 20260508105503 | 0 | 73 | 0.0 | 0.0 | 0.00 | 0.00 | 0.00 | 88 | 1010.7 |
| 20260508105010 | 0 | 73 | 0.0 | 0.0 | 0.00 | 0.00 | 0.00 | 88 | 1010.6 |
| 20260508104510 | 0 | 73 | 0.0 | 0.0 | 0.00 | 0.00 | 0.00 | 88 | 1010.6 |
| 20260508104007 | 0 | 73 | 0.0 | 0.0 | 0.00 | 0.00 | 0.00 | 88 | 1010.4 |
| 20260508103507 | 0 | 73 | 0.0 | 0.0 | 0.00 | 0.00 | 0.00 | 89 | 1010.3 |
| 20260508103025 | 0 | 73 | 0.0 | 0.0 | 0.00 | 0.00 | 0.00 | 88 | 1010.4 |
| 20260508102505 | 0 | 94 | 0.0 | 0.0 | 0.00 | 0.00 | 0.00 | 88 | 1010.5 |
| 20260508101525 | 0 | 94 | 0.0 | 0.0 | 0.00 | 0.00 | 0.00 | 88 | 1010.4 |
| 20260508101004 | 0 | 94 | 0.0 | 0.0 | 0.00 | 0.00 | 0.00 | 89 | 1010.4 |
| 20260508100506 | 0 | 94 | 0.0 | 0.0 | 0.00 | 0.00 | 0.00 | 89 | 1010.4 |
| 20260508100023 | 0 | 94 | 0.0 | 0.0 | 0.00 | 0.00 | 0.00 | 88 | 1010.6 |
| 20260508095507 | 0 | 94 | 0.0 | 0.0 | 0.00 | 0.00 | 0.00 | 88 | 1010.6 |
| 20260508095004 | 0 | 94 | 0.0 | 0.0 | 0.00 | 0.00 | 0.00 | 88 | 1010.5 |
| 20260508094515 | 0 | 94 | 0.0 | 0.0 | 0.00 | 0.00 | 0.00 | 88 | 1010.6 |
| 20260508094006 | 0 | 94 | 0.0 | 0.0 | 0.00 | 0.00 | 0.00 | 88 | 1010.6 |
| 20260508093504 | 1 | 94 | 0.0 | 0.0 | 0.00 | 0.00 | 0.00 | 88 | 1010.7 |
| 20260508093021 | 1 | 94 | 0.0 | 0.0 | 0.00 | 0.00 | 0.00 | 88 | 1010.6 |
| 20260508092506 | 1 | 94 | 0.0 | 0.0 | 0.00 | 0.00 | 0.00 | 88 | 1010.7 |
| 20260508092007 | 1 | 94 | 0.0 | 0.0 | 0.00 | 0.00 | 0.00 | 87 | 1010.7 |